Hourly Weather Roundup
Issued by NWS Central Illinois

Home | Current Version | Previous Version | Text Only | Print | Product List | Glossary On
Versions: 1 2 3 4 5 6 7 8 9 10 11 12 13 14 15 16 17 18 19 20 21 22 23 24 25 26 27 28 29 30 31 32 33 34 35 36 37 38 39 40 41 42 43 44 45 46 47 48 49 50
000
NZUS43 KILX 281610
HWRILX

AREA WEATHER ROUNDUP
NATIONAL WEATHER SERVICE, LINCOLN IL
1100 AM CDT MON JUL 28 2014


CITY           SKY/WX    TMP DP  RH WIND       PRES   REMARKS
BLOOMINGTON    MOSUNNY   65  52  62 NW15      30.11R
CHAMPAIGN      MOSUNNY   66  57  72 N14       30.06S
DECATUR        MOSUNNY   71  56  58 NW13      30.09R
FLORA          SUNNY     71  60  67 NW10      30.07S
GALESBURG      MOSUNNY   69  54  57 N16G22    30.15R
JACKSONVILLE   MOSUNNY   71  58  65 N10       30.14R
LACON          MOSUNNY   66  50  56 N13       30.11R
LAWRENCEVILLE  MOSUNNY   74  60  61 NW14      30.05R
LITCHFIELD     MOSUNNY   71  60  68 NW14      30.10S
$$


CITY           SKY/WX    TMP DP  RH WIND       PRES   REMARKS
LINCOLN        MOSUNNY   72  54  53 N9        30.08S
MACOMB         MOSUNNY   68  53  58 N14       30.17S
MATTOON        SUNNY     70  57  63 N14       30.06S
MT CARMEL AP   MOSUNNY   73  61  64 NW8       30.05R
OLNEY-NOBLE AP PTSUNNY   70  61  73 NW7       30.06S
PARIS          SUNNY     69  59  68 N8        30.06R
PEORIA         MOSUNNY   69  50  50 N9G20     30.12R
PONTIAC        MOSUNNY   68  55  64 NW10      30.08S
RANTOUL        MOSUNNY   71  55  58 NW10      30.07S
ROBINSON       MOSUNNY   73  61  65 NW10G17   30.06R
SPRINGFIELD    MOSUNNY   72  57  59 N15       30.11R
TAYLORVILLE    MOSUNNY   68  59  73 N13G18    30.10S
$$

...REGIONAL REPORTS...


CITY           SKY/WX    TMP DP  RH WIND       PRES   REMARKS
CHICAGO O`HARE MOSUNNY   65  43  44 N14G22    30.08R
KANKAKEE       MOSUNNY   67  56  67 NW7       30.07R
MOLINE         MOSUNNY   68  49  50 N14       30.14S
MOUNT VERNON   PTSUNNY   72  59  64 N5        30.08S
PITTSFIELD     CLOUDY    71  59  66 NW8       30.15R
QUINCY         CLOUDY    68  60  75 N7        30.15S
ROCKFORD       MOSUNNY   68  46  45 N21G26    30.13S
$$


CITY           SKY/WX    TMP DP  RH WIND       PRES   REMARKS
BURLINGTON     MOSUNNY   68  52  56 N15G22    30.16R
CEDAR RAPIDS   SUNNY     69  49  48 N14       30.18R
DES MOINES     MOSUNNY   73  53  49 N7        30.21S
KIRKSVILLE     PTSUNNY   69  60  73 N9        30.20S
OTTUMWA        SUNNY     70  53  54 NE9       30.18S
ST LOUIS       PTSUNNY   74  61  63 N9        30.12R
$$


CITY           SKY/WX    TMP DP  RH WIND       PRES   REMARKS
TERRE HAUTE    SUNNY     71  58  63 N8        30.03S
EVANSVILLE     PTSUNNY   74  59  59 NW7       30.04R
INDIANAPOLIS   CLOUDY    64  56  75 N12       30.01R
LAFAYETTE      PTSUNNY   68  55  63 N14G22    30.03R
MADISON        MOSUNNY   68  49  50 N10G20    30.14S
MILWAUKEE      MOSUNNY   63  46  54 NE17      30.10R
$$




USA.gov is the U.S. government's official web portal to all federal, state and local government web resources and services.